{"data":{"norad_id":57363,"intl_designator":"2023-099AM","name":"STARLINK-6356","alt_names":[],"object_type":"PAYLOAD","status":"ACTIVE","operator":null,"country":"US","launch_date":"2023-07-16","launch_site_code":"AFETR","launch_vehicle":null,"mission":null,"orbit_class":"UNKNOWN","rcs_meters":null,"size_class":null,"mass_kg":null,"dimensions":null,"purposes":["comms"],"wikipedia_slug":null,"has_3d_model":false,"image_url":null,"decayed_at":null,"tle_current":{"epoch":"2026-09-20T06:42:48.296160Z","epoch_age_seconds":143362,"freshness":"FRESH","line1":"1 57363U 23099AM  26263.27972565  .00001004  00000+0  45993-4 0  9997","line2":"2 57363  43.0039 222.3682 0001384 285.2508  74.8191 15.27579163175960","mean_motion":15.27579163,"eccentricity":0.0001384,"inclination_deg":43.0039,"raan_deg":222.3682,"arg_perigee_deg":285.2508,"mean_anomaly_deg":74.8191,"bstar":4.5993e-5,"rev_number":17596,"period_min":94.266800364833,"perigee_km":482.10201381735,"apogee_km":484.00119082247,"semimajor_km":6861.1886023199,"source":"CELESTRAK","updated_at":"2026-09-21T09:00:33.603262Z"}}}